Weather History for Cut Bank, MT

Change the Weather History Date:

Friday, May 17, 2013

  Actual Average Record
Temperature  
Mean Temperature 50 °F 50 °F  
Max Temperature 62 °F 63 °F 87 °F (2006)
Min Temperature 37 °F 38 °F 13 °F (1909)
Degree Days  
Heating Degree Days 15 15  
Month to date heating degree days 229 292  
Since 1 July heating degree days 7860 8112  
Cooling Degree Days 0 0  
Month to date cooling degree days 2 0  
Year to date cooling degree days 2 0  
Moisture  
Dew Point 40 °F    
Average Humidity 66    
Maximum Humidity 92    
Minimum Humidity 39    
Precipitation  
Precipitation T in 0.07 in 0.70 in (1949)
Month to date precipitation 0.16 0.83  
Year to date precipitation 2.18 2.52  
Snow  
Snow 0.00 in - - ()
Snow Depth 0.00 in    
Sea Level Pressure  
Sea Level Pressure 29.91 in    
Wind  
Wind Speed 10 mph (NNW)    
Max Wind Speed 18 mph    
Max Gust Speed 22 mph    
Visibility 10 miles    
Events Rain    
T = Trace of Precipitation, MM = Missing Value Source: NWS Daily Summary

Daily Weather History Graph

Daily Weather History Graph

Search for Another Location

Airport:

Trip Planner

Search our weather history database for the weather conditions in past years. The results will help you decide how hot, cold, wet, or windy it might be!

Date:

Astronomy

May. 17, 2013 Rise Set
Actual Time 5:45 AM MDT 9:06 PM MDT
Civil Twilight 5:07 AM MDT 9:45 PM MDT
Nautical Twilight 4:17 AM MDT 10:35 PM MDT
Astronomical Twilight 3:11 AM MDT 11:42 PM MDT
Moon 12:36 PM MDT (5/17) 1:48 AM MDT (5/17)
Length of Visible Light 16h 37m
Length of Day
15h 21m
Waxing Crescent, 46% of the Moon is Illuminated
May 17
Waxing Crescent
May 17
First Quarter
May 24
Full
May 31
Last Quarter
Jun 8
New

Hourly Weather History & Observations

Time (MDT) Temp. Windchill Dew Point Humidity Pressure Visibility Wind Dir Wind Speed Gust Speed Precip Events Conditions
12:56 AM 44.1 °F 38.1 °F 39.9 °F 85% 29.91 in 10.0 mi NNW 11.5 mph - N/A   Clear
1:56 AM 42.1 °F 35.7 °F 39.9 °F 92% 29.91 in 10.0 mi NW 11.5 mph - N/A   Mostly Cloudy
2:56 AM 43.0 °F 36.4 °F 39.9 °F 89% 29.90 in 10.0 mi NNW 12.7 mph - N/A   Scattered Clouds
3:56 AM 39.9 °F 34.5 °F 37.9 °F 93% 29.90 in 10.0 mi NW 8.1 mph - N/A   Clear
4:56 AM 39.2 °F 33.0 °F 37.4 °F 93% 29.92 in 10.0 mi NW 9.2 mph - N/A   Overcast
5:56 AM 37.9 °F 32.1 °F 36.0 °F 93% 29.91 in 10.0 mi NW 8.1 mph - N/A   Overcast
6:56 AM 39.0 °F - 36.0 °F 89% 29.92 in 10.0 mi Calm Calm - N/A   Clear
7:56 AM 44.6 °F 40.7 °F 41.0 °F 87% 29.94 in 10.0 mi NNW 6.9 mph - N/A   Scattered Clouds
8:56 AM 48.0 °F - 41.0 °F 77% 29.93 in 10.0 mi North 11.5 mph - N/A   Mostly Cloudy
9:56 AM 54.0 °F - 41.0 °F 62% 29.91 in 10.0 mi North 10.4 mph - N/A   Overcast
10:56 AM 57.0 °F - 39.0 °F 51% 29.90 in 10.0 mi North 6.9 mph - N/A   Clear
11:56 AM 59.0 °F - 37.9 °F 46% 29.89 in 10.0 mi Variable 4.6 mph - N/A   Partly Cloudy
12:56 PM 62.1 °F - 37.9 °F 41% 29.88 in 10.0 mi North 9.2 mph - N/A   Overcast
1:56 PM 61.0 °F - 37.0 °F 41% 29.87 in 10.0 mi NE 11.5 mph - N/A   Overcast
2:56 PM 62.1 °F - 37.0 °F 39% 29.86 in 10.0 mi ENE 5.8 mph - N/A   Partly Cloudy
3:56 PM 59.0 °F - 39.0 °F 48% 29.88 in 10.0 mi ESE 17.3 mph - N/A   Mostly Cloudy
4:56 PM 59.0 °F - 37.9 °F 46% 29.89 in 10.0 mi ESE 13.8 mph - N/A   Overcast
5:56 PM 57.0 °F - 39.9 °F 53% 29.91 in 10.0 mi Variable 5.8 mph - N/A   Overcast
6:21 PM 53.6 °F - 42.8 °F 67% 29.91 in 10.0 mi West 11.5 mph 21.9 mph N/A   Overcast
6:56 PM 55.0 °F - 44.1 °F 67% 29.93 in 10.0 mi West 12.7 mph - N/A   Overcast
7:56 PM 53.1 °F - 44.1 °F 71% 29.92 in 10.0 mi WNW 13.8 mph - N/A   Overcast
8:56 PM 50.0 °F - 45.0 °F 83% 29.93 in 10.0 mi WNW 11.5 mph - N/A   Overcast
9:56 PM 48.9 °F - 45.0 °F 86% 29.92 in 10.0 mi WNW 12.7 mph - N/A   Overcast
10:56 PM 48.0 °F - 45.0 °F 89% 29.92 in 10.0 mi WNW 11.5 mph - 0.00 in Rain Light Rain
11:56 PM 48.0 °F - 44.1 °F 86% 29.92 in 10.0 mi West 5.8 mph - 0.00 in   Overcast